SWA2982 PHLI-PHNL

Flight info

Callsign SWA2982
Flight time 0h 19m
Altitude 13000
Route V15
Aircraft B738/M-SADE2E3GIJ4RWZ/LB1D1

Departure

Time 2026-04-19 23:35
Airport Lihue Airport (PHLI)

Arrival

Time 2026-04-19 23:55
Airport Daniel K. Inouye International Airport (PHNL)
Time Latitude Longitude Altitude Speed Heading
2026-04-19 23:24 21.97744 -159.34865 191 ft 0 kts 315°
2026-04-19 23:28 21.97740 -159.34860 191 ft 2 kts 317°
2026-04-19 23:29 21.97729 -159.34850 191 ft 2 kts 314°
2026-04-19 23:29 21.97718 -159.34837 190 ft 2 kts 315°
2026-04-19 23:29 21.97708 -159.34827 189 ft 2 kts 316°
2026-04-19 23:29 21.97702 -159.34811 189 ft 2 kts 262°
2026-04-19 23:30 21.97709 -159.34798 188 ft 2 kts 218°
2026-04-19 23:30 21.97716 -159.34792 187 ft 1 kts 224°
2026-04-19 23:30 21.97718 -159.34790 187 ft 0 kts 224°
2026-04-19 23:30 21.97717 -159.34790 187 ft 0 kts 224°
2026-04-19 23:32 21.97718 -159.34790 187 ft 0 kts 224°
2026-04-19 23:32 21.97710 -159.34798 188 ft 6 kts 224°
2026-04-19 23:32 21.97653 -159.34859 190 ft 12 kts 225°
2026-04-19 23:33 21.97588 -159.34866 189 ft 12 kts 137°
2026-04-19 23:33 21.97516 -159.34819 186 ft 11 kts 190°
2026-04-19 23:33 21.97460 -159.34869 187 ft 9 kts 227°
2026-04-19 23:33 21.97414 -159.34920 188 ft 10 kts 225°
2026-04-19 23:34 21.97357 -159.34933 187 ft 9 kts 152°
2026-04-19 23:34 21.97312 -159.34876 184 ft 10 kts 93°
2026-04-19 23:34 21.97364 -159.34805 183 ft 17 kts 45°
2026-04-19 23:34 21.97640 -159.34511 174 ft 96 kts 45°
2026-04-19 23:35 21.98302 -159.33798 129 ft 165 kts 45°
2026-04-19 23:35 21.99143 -159.32901 747 ft 173 kts 45°
2026-04-19 23:35 21.99951 -159.31941 1547 ft 176 kts 64°
2026-04-19 23:35 22.00147 -159.30656 2114 ft 185 kts 98°
2026-04-19 23:36 21.99549 -159.29362 2495 ft 211 kts 132°
2026-04-19 23:36 21.98415 -159.28192 2914 ft 235 kts 131°
2026-04-19 23:36 21.97286 -159.26854 3482 ft 251 kts 130°
2026-04-19 23:36 21.96062 -159.25427 4113 ft 265 kts 131°
2026-04-19 23:37 21.94809 -159.23996 4988 ft 267 kts 131°
2026-04-19 23:37 21.93518 -159.22511 5765 ft 273 kts 131°
2026-04-19 23:37 21.92234 -159.21024 6619 ft 275 kts 131°
2026-04-19 23:37 21.90926 -159.19511 7456 ft 278 kts 131°
2026-04-19 23:38 21.89591 -159.17981 8190 ft 284 kts 132°
2026-04-19 23:38 21.88246 -159.16419 9017 ft 285 kts 129°
2026-04-19 23:38 21.87059 -159.14712 9748 ft 289 kts 123°
2026-04-19 23:38 21.86019 -159.12834 10426 ft 296 kts 120°
2026-04-19 23:39 21.84941 -159.10851 10710 ft 317 kts 122°
2026-04-19 23:39 21.83747 -159.08789 10981 ft 336 kts 122°
2026-04-19 23:39 21.82462 -159.06595 11172 ft 356 kts 123°
2026-04-19 23:39 21.81115 -159.04288 11552 ft 370 kts 123°
2026-04-19 23:40 21.79730 -159.01910 12162 ft 375 kts 123°
2026-04-19 23:40 21.78335 -158.99539 12770 ft 379 kts 123°
2026-04-19 23:40 21.76901 -158.97116 12929 ft 384 kts 123°
2026-04-19 23:40 21.75486 -158.94713 12944 ft 376 kts 123°
2026-04-19 23:41 21.74080 -158.92325 12946 ft 376 kts 124°
2026-04-19 23:41 21.72676 -158.89954 12945 ft 377 kts 123°
2026-04-19 23:41 21.71260 -158.87563 12945 ft 377 kts 123°
2026-04-19 23:41 21.69848 -158.85170 12946 ft 377 kts 123°
2026-04-19 23:42 21.68440 -158.82787 12946 ft 377 kts 123°
2026-04-19 23:42 21.67027 -158.80396 12946 ft 378 kts 123°
2026-04-19 23:42 21.65607 -158.77994 12945 ft 378 kts 123°
2026-04-19 23:42 21.64209 -158.75627 12946 ft 378 kts 123°
2026-04-19 23:43 21.62797 -158.73239 12947 ft 378 kts 123°
2026-04-19 23:43 21.61381 -158.70845 12946 ft 378 kts 123°
2026-04-19 23:43 21.59975 -158.68465 12940 ft 374 kts 123°
2026-04-19 23:43 21.58570 -158.66081 12716 ft 373 kts 123°
2026-04-19 23:44 21.57174 -158.63718 12191 ft 370 kts 123°
2026-04-19 23:44 21.55820 -158.61426 11761 ft 361 kts 123°
2026-04-19 23:44 21.54483 -158.59163 11375 ft 357 kts 122°
2026-04-19 23:44 21.53143 -158.56897 10987 ft 357 kts 122°
2026-04-19 23:45 21.51814 -158.54646 10593 ft 356 kts 122°
2026-04-19 23:45 21.50490 -158.52402 10208 ft 355 kts 122°
2026-04-19 23:45 21.49183 -158.50188 9986 ft 343 kts 121°
2026-04-19 23:45 21.47934 -158.48074 9971 ft 323 kts 121°
2026-04-19 23:46 21.46769 -158.46109 9972 ft 305 kts 121°
2026-04-19 23:46 21.45657 -158.44238 9972 ft 288 kts 121°
2026-04-19 23:46 21.44603 -158.42465 9975 ft 276 kts 121°
2026-04-19 23:46 21.43567 -158.40715 9975 ft 277 kts 121°
2026-04-19 23:47 21.42528 -158.38954 9859 ft 282 kts 121°
2026-04-19 23:47 21.41466 -158.37149 9336 ft 288 kts 121°
2026-04-19 23:47 21.40395 -158.35321 8738 ft 294 kts 120°
2026-04-19 23:47 21.39305 -158.33461 8100 ft 296 kts 121°
2026-04-19 23:48 21.38209 -158.31602 7436 ft 292 kts 121°
2026-04-19 23:48 21.37128 -158.29768 6810 ft 289 kts 121°
2026-04-19 23:48 21.36064 -158.27956 6265 ft 286 kts 121°
2026-04-19 23:48 21.35021 -158.26184 5700 ft 279 kts 121°
2026-04-19 23:49 21.34004 -158.24460 5386 ft 266 kts 121°
2026-04-19 23:49 21.33037 -158.22806 5110 ft 254 kts 119°
2026-04-19 23:49 21.32334 -158.21124 4826 ft 243 kts 101°
2026-04-19 23:49 21.32370 -158.19363 4526 ft 234 kts 76°
2026-04-19 23:50 21.32692 -158.17670 4191 ft 229 kts 90°
2026-04-19 23:50 21.32500 -158.15993 3915 ft 222 kts 96°
2026-04-19 23:50 21.32499 -158.14377 3659 ft 216 kts 86°
2026-04-19 23:50 21.32512 -158.12787 3331 ft 212 kts 90°
2026-04-19 23:51 21.32517 -158.11224 3024 ft 208 kts 90°
2026-04-19 23:51 21.32516 -158.09686 2742 ft 204 kts 90°
2026-04-19 23:51 21.32521 -158.08185 2476 ft 200 kts 90°
2026-04-19 23:51 21.32519 -158.06700 2218 ft 195 kts 90°
2026-04-19 23:52 21.32522 -158.05254 1966 ft 192 kts 90°
2026-04-19 23:52 21.32521 -158.03876 1747 ft 177 kts 90°
2026-04-19 23:52 21.32523 -158.02611 1490 ft 161 kts 91°
2026-04-19 23:52 21.32520 -158.01425 1303 ft 159 kts 91°
2026-04-19 23:53 21.32525 -158.00247 1125 ft 156 kts 91°
2026-04-19 23:53 21.32520 -157.99087 879 ft 152 kts 91°
2026-04-19 23:53 21.32526 -157.97963 706 ft 149 kts 92°
2026-04-19 23:53 21.32523 -157.96848 509 ft 150 kts 91°
2026-04-19 23:54 21.32527 -157.95754 311 ft 146 kts 92°
2026-04-19 23:54 21.32531 -157.94655 131 ft 145 kts 92°
2026-04-19 23:54 21.32525 -157.93607 31 ft 131 kts 90°
2026-04-19 23:54 21.32527 -157.92850 33 ft 75 kts 92°
2026-04-19 23:55 21.32520 -157.92404 36 ft 36 kts 92°
2026-04-19 23:55 21.32572 -157.92259 36 ft 13 kts 14°
2026-04-19 23:55 21.32657 -157.92253 38 ft 11 kts
2026-04-19 23:55 21.32767 -157.92233 39 ft 16 kts 37°
2026-04-19 23:56 21.32846 -157.92174 40 ft 11 kts 10°
2026-04-19 23:56 21.32899 -157.92137 41 ft 8 kts 63°
2026-04-19 23:56 21.32918 -157.92090 41 ft 4 kts 68°
2026-04-19 23:56 21.32918 -157.92087 41 ft 0 kts 68°